Location: Newark
(36.6294°S, 72.9458°W)
Time: 05:15:06
(UTC+00:00)

N. Korean satellite - Visible Passes

Search period start: 28 January 2020 00:00
Search period end: 07 February 2020 00:00
Orbit: 454 x 507 km, 97.2° (Epoch: 27 January)

Date Brightness Start Highest point End Pass type
(mag) Time Alt. Az. Time Alt. Az. Time Alt. Az.
29 Jan 9.7 09:07:40 10° ENE 09:10:28 20° ESE 09:13:18 10° SSE visible
30 Jan 10.6 08:44:59 10° ESE 08:45:13 10° ESE 08:45:28 10° ESE visible
01 Feb 8.8 09:23:51 10° NE 09:27:13 32° ESE 09:30:36 10° S visible
02 Feb 9.9 08:59:33 10° ENE 09:01:54 16° ESE 09:04:16 10° SSE visible
04 Feb 7.6 09:40:21 10° NNE 09:44:00 55° ESE 09:47:41 10° S visible
05 Feb 9.3 09:15:30 10° NE 09:18:37 25° ESE 09:21:44 10° SSE visible
06 Feb 10.1 08:51:38 10° E 08:53:19 13° ESE 08:55:00 10° SE visible
